Wind_Speed
28 28 27 28 29 30 29 26 23 22 22 21 21 21 19 18 16 16 15 14 13 12 12 11 11 10 10 10 9 8 8 8 7 6 6 5 5 5 5 4 4 4 4 3 3 4 3 2 2
29 29 29 30 31 31 30 26 24 23 23 23 23 22 21 20 18 17 17 16 15 14 14 13 12 12 11 11 11 10 10 9 8 7 7 7 6 6 6 5 5 5 4 5 5 4 4 4 4
30 30 31 32 32 32 30 27 26 25 25 24 24 24 23 21 20 19 19 18 17 16 15 15 14 14 13 13 13 12 11 11 10 9 8 8 8 7 7 7 6 5 5 5 5 6 5 5 5
33 33 33 33 33 32 30 28 27 27 27 27 26 26 24 23 22 21 20 19 19 18 17 16 16 16 15 15 15 14 14 13 12 12 11 10 10 9 9 8 8 7 7 7 6 6 7 7 6
34 34 35 35 34 32 31 29 29 29 29 28 28 27 25 24 24 23 22 21 20 19 18 18 18 17 17 17 17 16 16 15 14 14 13 12 11 11 11 10 10 9 8 8 8 8 8 8 8
35 35 35 35 34 32 32 31 31 30 30 30 29 29 28 25 25 24 23 22 22 21 20 20 20 19 19 18 18 18 18 17 16 15 15 14 13 13 13 12 12 11 10 10 10 9 9 9 10
34 34 35 35 34 34 32 33 32 31 31 31 31 31 30 28 27 26 25 24 24 23 23 22 22 22 21 20 20 20 20 19 18 18 17 16 15 15 15 14 14 13 12 12 12 11 11 11 11
34 34 35 35 35 34 33 33 33 32 32 33 33 32 32 30 28 28 27 26 26 26 25 25 24 24 24 23 22 22 21 21 20 20 19 18 17 17 16 16 16 15 14 14 13 13 13 12 12
34 35 35 35 35 35 35 34 35 34 34 34 34 33 33 31 30 30 29 28 28 28 27 26 26 26 26 25 24 24 23 23 22 22 21 20 19 19 18 18 17 17 16 16 16 15 15 14 14
32 33 33 35 36 36 36 36 36 36 35 35 35 34 33 33 32 32 31 30 29 29 28 28 28 28 29 28 27 26 25 25 24 24 23 22 21 20 20 19 19 19 19 18 18 18 17 16 16
29 31 32 34 36 37 38 38 37 36 36 36 36 35 35 33 33 33 32 31 31 30 30 29 29 29 29 28 28 28 27 26 26 26 25 24 23 22 21 21 21 21 21 21 20 20 19 18 18
28 29 31 32 35 37 38 38 38 37 36 36 36 36 37 35 34 34 34 33 33 32 32 31 30 30 30 30 30 30 29 28 28 28 27 26 25 25 24 24 23 23 23 22 22 22 21 21 20
27 28 30 31 33 34 37 38 38 36 36 36 36 37 37 37 35 35 35 35 34 34 33 33 32 32 31 32 31 31 31 30 29 29 29 28 28 27 27 26 26 26 25 25 24 24 24 23 23
26 28 29 30 31 33 35 37 37 36 37 37 37 37 38 38 37 36 36 35 36 35 34 34 33 33 33 33 33 33 33 32 32 31 31 31 30 30 29 28 28 28 28 27 26 26 25 25 25
24 25 28 28 30 31 33 35 36 36 37 38 37 37 37 37 36 36 36 35 35 36 35 35 34 34 34 33 34 34 34 33 33 33 33 33 33 32 31 31 30 30 30 29 29 28 27 27 27
24 24 26 27 28 29 32 33 34 36 37 38 38 37 37 37 36 36 36 36 36 37 37 36 36 36 35 34 35 35 35 35 35 35 35 35 35 34 34 33 32 32 31 31 30 30 30 29 29
25 24 25 26 26 28 31 32 33 35 36 37 38 38 37 37 38 37 36 37 37 38 38 37 36 36 36 36 35 35 35 36 36 36 36 36 37 37 36 35 34 34 33 33 32 32 32 31 30
25 24 25 25 26 27 29 31 32 33 35 35 36 38 38 38 39 38 37 37 37 38 38 38 37 37 37 37 36 36 36 36 36 37 38 38 38 38 38 37 36 35 35 35 34 34 34 33 32
25 25 24 25 26 27 27 30 31 31 33 34 35 36 37 38 38 39 38 37 38 38 38 38 38 38 38 37 37 37 37 37 37 38 39 40 39 39 40 39 37 37 37 37 37 36 35 35 35
24 25 24 23 24 26 26 28 30 30 31 32 34 35 36 36 37 38 38 37 38 38 40 40 39 39 39 38 39 39 40 40 40 40 40 41 41 41 41 41 40 39 38 39 39 38 37 37 37
22 23 24 23 23 25 26 28 29 28 28 30 33 34 35 35 35 37 38 38 37 39 40 41 41 40 40 41 41 41 42 42 42 42 42 42 43 43 42 42 42 41 40 40 40 39 38 38 38
21 22 23 23 23 24 26 28 29 28 28 29 30 32 33 34 35 36 38 39 39 39 41 41 42 42 42 42 42 42 42 43 43 43 44 44 44 44 44 43 44 43 42 41 40 39 39 39 38
20 21 22 23 23 24 24 28 29 30 29 30 31 32 32 34 35 37 38 39 39 40 41 41 41 42 43 44 45 44 43 43 44 45 44 44 45 45 45 45 44 44 43 42 41 41 41 41 40
19 19 20 21 23 24 24 26 27 28 29 30 31 31 32 33 35 37 38 39 40 41 42 42 42 43 44 45 46 46 45 45 44 45 45 46 46 46 46 45 44 44 43 43 43 43 43 42 41
18 19 19 21 22 22 23 25 26 28 28 29 31 31 32 34 35 36 38 40 40 41 42 43 44 44 44 45 46 46 46 45 45 44 45 46 47 46 46 46 46 45 45 45 44 44 43 43 43
17 19 20 21 22 22 23 24 25 26 28 29 30 31 32 34 35 36 39 40 40 41 43 44 45 45 45 46 47 47 47 45 44 45 46 46 45 46 46 46 47 46 46 46 46 45 45 44 44
18 18 20 21 22 23 23 23 24 24 27 29 30 30 31 33 34 35 37 39 40 42 43 44 46 46 46 47 47 47 46 45 44 45 46 45 45 46 47 47 46 46 46 46 46 46 46 45 45
17 18 19 20 21 22 22 22 23 24 25 27 29 30 31 32 33 35 37 39 41 42 43 44 45 46 46 46 46 45 45 44 44 43 43 44 44 45 45 45 46 45 46 46 45 46 46 47 46
16 17 18 19 21 23 24 22 22 23 24 25 27 29 31 32 33 35 37 38 39 41 42 43 44 45 45 45 46 45 45 44 44 44 43 44 44 44 44 45 46 46 46 46 46 46 46 47 47
16 17 17 19 20 22 24 22 22 23 24 25 26 27 29 31 33 35 37 37 38 39 40 41 43 44 44 45 46 45 44 44 44 44 44 44 45 45 45 45 45 45 46 46 47 47 47 48 47
Wind_Direction
241 239 238 236 234 234 234 233 232 231 230 228 229 229 228 226 226 226 225 225 227 228 228 230 230 231 232 234 236 238 242 247 252 256 258 261 262 259 257 252 245 241 241 237 232 235 241 251 276
241 240 238 236 235 235 235 233 231 231 231 230 231 230 230 229 227 227 227 227 229 230 231 232 233 233 234 237 240 243 244 246 248 252 254 257 259 256 254 251 248 244 245 243 244 246 248 256 270
240 239 239 237 236 235 235 233 232 231 231 231 231 231 230 231 230 229 230 231 232 233 232 233 235 236 237 239 242 243 245 246 247 249 250 252 255 255 254 252 251 248 248 250 252 256 259 263 268
240 239 239 238 236 235 235 233 232 232 232 232 232 232 230 231 232 232 232 232 233 234 234 234 237 239 241 242 244 244 244 245 246 248 249 250 252 254 255 253 251 251 253 254 255 259 262 265 270
240 240 239 237 236 235 233 232 232 232 232 232 233 233 231 232 232 232 233 233 234 235 236 237 240 241 243 245 245 245 244 243 245 248 250 251 252 254 256 255 253 254 257 258 258 260 262 265 271
239 239 238 236 236 235 234 232 231 231 232 232 232 233 232 232 232 233 234 235 236 237 238 239 241 243 244 246 247 247 246 244 245 248 250 251 252 254 256 256 256 257 258 259 261 262 265 269 273
238 239 237 236 235 235 234 232 231 232 233 234 234 234 233 234 233 234 234 236 238 239 240 241 242 244 244 246 246 247 247 246 246 247 248 250 251 254 256 257 257 257 258 260 262 264 266 270 272
238 238 237 234 234 234 233 233 232 233 234 235 235 235 233 234 235 235 235 236 239 240 241 243 243 245 246 247 247 248 248 246 246 248 248 248 250 252 255 256 256 257 259 261 263 265 267 269 271
238 237 236 234 233 234 234 233 232 233 234 236 237 236 235 234 235 236 236 237 239 241 243 244 245 246 247 248 249 249 249 248 247 248 249 249 250 252 254 255 256 257 259 261 264 266 268 268 270
239 237 235 233 233 234 234 234 233 234 234 236 237 237 236 234 234 236 237 238 239 241 244 246 247 247 247 247 248 248 249 248 248 247 248 249 249 250 252 255 257 258 260 262 264 267 267 267 269
238 236 233 231 232 233 233 233 234 234 235 237 238 238 237 235 235 237 237 238 240 241 244 246 247 246 245 247 248 248 249 249 249 248 247 248 249 250 251 255 258 259 261 262 264 265 266 267 267
237 235 234 233 234 233 232 233 234 234 235 237 238 238 238 237 236 237 238 240 241 242 244 244 244 244 245 247 248 248 249 249 250 249 248 248 250 251 252 255 258 260 261 262 263 263 265 265 265
237 234 234 234 235 234 233 232 234 234 235 236 238 239 238 237 237 238 240 241 243 243 243 242 243 246 247 248 249 248 249 250 250 250 251 250 250 252 254 256 259 262 262 262 263 263 264 264 265
237 235 234 234 235 234 233 233 232 232 234 236 238 240 239 238 238 240 242 243 244 245 244 243 244 245 248 249 250 249 249 250 251 251 251 251 251 253 255 257 259 261 263 263 263 263 264 264 265
237 236 233 233 234 234 233 233 232 233 235 236 238 240 240 239 239 241 243 244 245 246 245 245 245 246 248 249 249 248 248 249 251 252 252 252 253 254 255 256 259 260 262 263 263 263 264 264 264
236 237 234 233 235 235 234 233 231 234 236 237 237 238 239 239 240 242 244 244 245 245 245 245 247 248 249 250 250 250 250 250 250 251 252 252 254 255 255 257 258 260 261 262 263 263 263 264 264
234 236 236 233 234 234 236 235 233 237 237 237 237 237 238 240 241 241 243 244 245 245 245 246 248 248 249 251 252 251 250 250 251 252 253 253 254 255 256 256 258 259 260 261 262 263 263 264 264
236 238 238 238 236 235 237 236 236 238 237 238 239 238 238 240 241 242 243 244 245 245 245 247 248 249 248 250 252 252 252 252 252 252 253 253 254 255 256 256 258 258 259 260 262 263 263 264 265
240 242 241 240 239 239 239 237 237 239 238 240 241 241 239 240 241 242 243 245 246 247 247 248 249 249 250 250 251 252 253 253 253 253 253 254 255 256 255 255 258 260 260 260 261 262 264 265 266
241 241 242 240 240 242 242 241 240 241 240 241 242 243 242 241 242 242 243 246 247 247 247 249 250 250 251 250 251 252 252 253 254 254 255 255 255 255 256 257 257 260 261 261 261 261 263 264 266
241 243 242 242 242 242 243 242 239 239 237 240 242 243 243 243 243 244 245 247 248 249 249 249 250 251 251 252 252 252 253 254 255 256 256 256 256 256 257 257 257 258 260 262 261 262 263 265 265
242 243 243 243 244 246 247 245 239 238 238 241 243 244 245 245 246 248 248 248 249 250 250 249 251 252 252 253 252 252 253 255 256 257 257 257 257 256 257 258 258 258 260 262 262 263 263 265 267
241 241 244 246 250 254 251 248 243 240 238 240 244 246 248 249 250 252 253 253 252 252 251 251 252 253 253 253 253 253 254 256 257 257 257 257 257 257 257 257 257 258 259 260 261 263 265 266 267
242 245 248 251 255 255 252 250 245 242 240 243 246 248 249 252 254 254 255 256 256 254 253 253 254 254 254 254 254 254 256 258 258 257 256 257 258 258 256 257 257 257 258 260 261 263 264 265 266
245 247 250 255 257 258 257 254 253 249 247 248 249 251 251 253 255 256 255 256 258 257 256 256 257 256 256 256 256 256 257 259 258 258 257 258 258 257 256 256 256 257 258 260 260 262 262 263 265
247 249 254 260 262 262 261 258 260 254 252 252 253 255 255 256 258 260 258 257 259 258 258 257 257 257 257 257 257 257 257 257 257 258 258 258 258 258 256 256 256 258 260 260 259 260 261 263 265
251 254 260 264 266 268 265 264 264 257 256 254 255 258 259 260 262 264 263 261 259 259 259 259 257 258 257 257 257 256 255 255 256 257 257 256 257 257 256 256 257 258 259 259 259 260 261 262 264
256 261 264 268 270 272 270 271 269 264 262 258 259 262 264 266 267 268 268 265 263 262 260 260 258 257 257 256 255 254 252 253 254 255 255 255 256 256 256 257 256 258 259 258 259 260 261 262 264
264 265 267 272 275 275 277 276 274 272 268 266 267 267 269 270 271 272 271 270 267 264 262 261 259 257 255 255 254 252 251 252 252 254 254 254 254 255 255 256 256 258 259 258 259 260 262 263 265
267 269 272 276 279 279 279 279 278 277 274 271 270 271 272 273 274 275 274 271 268 265 262 261 258 256 255 254 253 251 251 253 252 253 253 254 253 253 254 255 258 260 260 260 261 260 261 263 265
Height
5830 5831 5833 5835 5837 5837 5839 5843 5846 5848 5850 5852 5853 5855 5857 5860 5862 5866 5865 5866 5867 5868 5869 5870 5871 5872 5873 5873 5874 5875 5875 5876 5876 5877 5877 5877 5877 5878 5877 5877 5877 5877 5877 5877 5877 5877 5877 5876 5876
5824 5825 5827 5829 5830 5831 5835 5839 5842 5844 5846 5848 5850 5852 5854 5856 5859 5860 5861 5863 5864 5866 5867 5868 5869 5870 5871 5872 5872 5873 5874 5875 5875 5876 5876 5876 5876 5877 5877 5877 5877 5877 5876 5876 5876 5876 5876 5876 5875
5817 5818 5821 5822 5823 5826 5831 5835 5838 5840 5841 5844 5846 5848 5851 5853 5855 5857 5858 5860 5862 5863 5865 5866 5867 5868 5869 5870 5870 5871 5872 5873 5873 5874 5875 5875 5875 5875 5876 5876 5876 5876 5875 5875 5875 5875 5875 5875 5874
5809 5811 5813 5815 5817 5822 5826 5830 5832 5835 5836 5839 5841 5844 5847 5850 5852 5853 5855 5857 5859 5860 5862 5863 5864 5866 5866 5867 5868 5869 5870 5871 5872 5872 5873 5873 5874 5874 5874 5874 5874 5874 5874 5874 5874 5874 5874 5873 5873
5801 5803 5805 5807 5811 5816 5820 5823 5826 5829 5831 5833 5836 5839 5842 5845 5847 5849 5851 5853 5855 5857 5859 5860 5861 5862 5863 5864 5865 5866 5867 5868 5869 5870 5871 5871 5872 5872 5872 5873 5873 5873 5873 5873 5873 5872 5872 5872 5871
5792 5795 5797 5801 5805 5809 5813 5817 5819 5822 5825 5828 5831 5834 5837 5839 5842 5845 5847 5849 5851 5853 5855 5856 5858 5859 5860 5861 5862 5863 5864 5865 5866 5867 5868 5869 5869 5870 5870 5871 5871 5871 5871 5871 5871 5871 5870 5870 5869
5785 5787 5790 5795 5799 5802 5806 5810 5813 5816 5819 5822 5825 5828 5831 5834 5837 5840 5842 5845 5847 5849 5851 5852 5853 5855 5856 5857 5858 5859 5861 5862 5863 5864 5865 5866 5866 5867 5867 5868 5868 5869 5869 5869 5869 5868 5868 5868 5867
5776 5780 5783 5787 5791 5795 5799 5803 5806 5810 5813 5815 5818 5822 5825 5829 5831 5834 5837 5840 5842 5844 5846 5847 5849 5850 5851 5853 5854 5855 5856 5858 5859 5860 5861 5862 5863 5864 5864 5865 5865 5866 5866 5866 5866 5866 5865 5865 5865
5768 5772 5775 5780 5784 5788 5792 5795 5799 5802 5806 5808 5812 5815 5819 5822 5825 5828 5831 5834 5836 5838 5840 5842 5844 5845 5846 5847 5849 5850 5851 5853 5855 5856 5857 5858 5859 5860 5861 5861 5862 5862 5863 5863 5863 5862 5862 5862 5862
5759 5763 5768 5773 5777 5780 5783 5787 5791 5795 5799 5802 5805 5808 5812 5815 5818 5821 5824 5828 5830 5833 5834 5836 5838 5839 5840 5841 5843 5844 5846 5848 5849 5851 5852 5854 5855 5856 5857 5857 5858 5858 5859 5859 5859 5859 5859 5859 5859
5751 5755 5760 5763 5767 5771 5775 5779 5783 5788 5791 5795 5798 5801 5805 5809 5812 5815 5818 5821 5824 5826 5828 5829 5831 5831 5833 5835 5837 5838 5840 5842 5843 5845 5847 5848 5850 5851 5852 5853 5853 5854 5854 5855 5855 5855 5855 5855 5855
5745 5748 5751 5755 5758 5762 5766 5770 5775 5780 5785 5787 5790 5793 5797 5801 5804 5808 5811 5814 5816 5819 5821 5822 5824 5825 5827 5829 5831 5832 5834 5835 5837 5839 5841 5843 5844 5846 5847 5848 5848 5849 5849 5850 5850 5850 5850 5850 5850
5738 5741 5744 5747 5750 5753 5757 5761 5766 5772 5776 5779 5782 5785 5788 5792 5796 5800 5803 5805 5808 5811 5813 5815 5817 5819 5820 5822 5824 5825 5827 5829 5831 5833 5835 5836 5838 5840 5841 5842 5843 5843 5844 5844 5844 5845 5845 5845 5845
5732 5734 5737 5740 5743 5746 5750 5754 5758 5764 5768 5771 5775 5778 5781 5784 5787 5791 5794 5797 5799 5802 5805 5807 5809 5812 5813 5815 5816 5818 5820 5822 5824 5826 5828 5830 5831 5833 5835 5836 5837 5837 5837 5838 5838 5839 5839 5839 5839
5726 5729 5731 5733 5736 5738 5743 5747 5752 5756 5759 5763 5767 5770 5773 5776 5779 5782 5785 5788 5791 5793 5796 5799 5801 5803 5806 5807 5809 5811 5812 5814 5816 5818 5820 5822 5824 5826 5828 5829 5830 5830 5830 5831 5831 5832 5832 5832 5833
5720 5722 5725 5727 5729 5732 5737 5740 5745 5747 5751 5755 5759 5762 5765 5768 5771 5774 5777 5780 5782 5785 5787 5790 5793 5795 5797 5799 5801 5803 5805 5806 5808 5810 5812 5814 5816 5818 5820 5821 5822 5823 5823 5824 5824 5825 5825 5825 5826
5714 5716 5719 5721 5723 5725 5729 5733 5737 5739 5742 5746 5750 5753 5756 5760 5763 5766 5768 5771 5774 5776 5779 5782 5784 5787 5789 5791 5793 5794 5796 5798 5800 5802 5804 5806 5808 5810 5811 5813 5814 5815 5815 5816 5817 5817 5817 5818 5818
5709 5711 5713 5715 5717 5719 5722 5726 5729 5731 5734 5737 5741 5744 5748 5751 5755 5757 5760 5762 5765 5768 5771 5773 5776 5778 5780 5782 5784 5786 5788 5789 5791 5793 5796 5798 5800 5801 5802 5804 5805 5806 5807 5808 5809 5809 5810 5810 5810
5705 5707 5709 5710 5711 5713 5716 5719 5722 5724 5726 5729 5732 5735 5739 5742 5745 5748 5751 5753 5756 5759 5761 5764 5767 5769 5771 5773 5775 5777 5779 5782 5783 5785 5787 5789 5790 5792 5793 5795 5796 5797 5798 5799 5800 5801 5801 5801 5802
5700 5702 5704 5705 5706 5708 5710 5713 5714 5716 5719 5722 5724 5727 5730 5733 5736 5739 5742 5745 5747 5749 5752 5755 5757 5759 5761 5763 5765 5767 5770 5772 5774 5776 5777 5779 5780 5782 5783 5785 5787 5788 5789 5790 5790 5791 5791 5792 5793
5695 5697 5699 5700 5702 5702 5704 5706 5707 5709 5711 5714 5716 5719 5721 5724 5727 5730 5732 5735 5737 5740 5742 5745 5747 5749 5751 5752 5754 5757 5759 5762 5764 5765 5767 5768 5770 5772 5773 5775 5776 5778 5779 5779 5780 5781 5782 5783 5783
5691 5692 5694 5695 5696 5696 5698 5699 5701 5703 5705 5707 5709 5711 5713 5716 5718 5720 5722 5725 5727 5730 5732 5734 5736 5738 5740 5742 5744 5746 5749 5751 5753 5755 5756 5757 5758 5760 5762 5764 5765 5767 5768 5769 5771 5771 5772 5773 5774
5687 5688 5690 5690 5690 5691 5692 5692 5695 5696 5698 5700 5702 5703 5705 5707 5709 5711 5713 5714 5717 5719 5721 5723 5725 5727 5729 5731 5733 5735 5737 5740 5742 5743 5744 5746 5747 5749 5750 5752 5754 5756 5758 5759 5760 5761 5762 5763 5763
5683 5684 5685 5685 5685 5685 5685 5685 5687 5689 5691 5693 5694 5696 5697 5699 5700 5701 5703 5704 5705 5707 5709 5712 5714 5716 5717 5719 5721 5723 5725 5728 5730 5731 5732 5734 5736 5737 5739 5741 5743 5745 5747 5748 5750 5751 5752 5752 5753
5679 5680 5680 5679 5678 5678 5679 5679 5681 5682 5684 5685 5687 5688 5689 5690 5691 5692 5693 5694 5695 5696 5698 5700 5702 5704 5705 5707 5709 5711 5713 5715 5717 5719 5721 5722 5724 5725 5727 5729 5731 5733 5735 5737 5738 5739 5741 5742 5742
5675 5676 5676 5675 5674 5674 5673 5673 5676 5676 5676 5677 5678 5679 5680 5681 5682 5682 5683 5683 5684 5685 5686 5688 5689 5691 5693 5695 5697 5699 5701 5703 5705 5707 5709 5710 5712 5714 5716 5718 5720 5722 5723 5725 5726 5728 5729 5731 5731
5670 5671 5671 5670 5668 5668 5668 5669 5669 5669 5669 5670 5670 5671 5671 5672 5673 5672 5672 5672 5673 5674 5674 5676 5677 5679 5681 5683 5684 5686 5688 5691 5693 5695 5697 5698 5701 5703 5704 5706 5708 5710 5711 5713 5715 5717 5718 5719 5720
5667 5667 5666 5665 5663 5662 5663 5663 5663 5663 5662 5663 5663 5663 5663 5663 5663 5662 5662 5661 5661 5661 5662 5663 5665 5666 5668 5670 5672 5675 5677 5679 5682 5684 5686 5687 5690 5691 5693 5694 5696 5698 5700 5701 5703 5705 5706 5708 5709
5663 5663 5661 5660 5659 5658 5657 5660 5658 5656 5656 5656 5656 5656 5655 5654 5653 5652 5651 5650 5649 5649 5650 5651 5652 5654 5656 5658 5661 5664 5666 5668 5670 5673 5675 5677 5678 5680 5682 5683 5685 5687 5688 5690 5691 5693 5694 5696 5697
5659 5658 5657 5657 5655 5653 5652 5656 5652 5650 5649 5649 5649 5648 5646 5645 5644 5642 5640 5639 5638 5638 5638 5639 5641 5642 5644 5647 5650 5652 5655 5657 5659 5661 5663 5665 5667 5669 5671 5672 5674 5675 5676 5678 5679 5681 5683 5684 5685